Observations for Trim Market St
| Time | AQI | Temp °C | Hum % | Pres Pa | CO μg/m³ | H₂S μg/m³ | NO μg/m³ | NO₂ μg/m³ | O₃ μg/m³ | SO₂ μg/m³ | PM1 μg/m³ | PM2.5 μg/m³ | PM10 μg/m³ |
|---|---|---|---|---|---|---|---|---|---|---|---|---|---|
| Monday 17 August 2026 | |||||||||||||
| 13:52 | 2 | 25.4 | 53 | 55,668 | 0 | 0 | 1.17 | 11.72 | 69.87 | 0 | 1.43 | 3.35 | 3.89 |
| 13:51 | 2 | 25.4 | 53 | 55,736 | 0 | 0 | 1.21 | 11.54 | 60.52 | 0 | 1.43 | 3.86 | 4.61 |
| 13:50 | 2 | 25.4 | 53 | 55,829 | 0 | 0 | 1.27 | 12.27 | 67.55 | 0 | 1.43 | 4.38 | 5.34 |
| 13:49 | 2 | 25.4 | 53 | 55,932 | 0 | 0 | 1.29 | 14.39 | 53.79 | 0 | 0.71 | 2.85 | 3.15 |
| 13:48 | 2 | 25.4 | 53 | 56,076 | 0 | 0 | 1.38 | 11.77 | 56.19 | 0 | 1.43 | 2.85 | 3.15 |
| 13:47 | 2 | 25.4 | 53 | 56,282 | 0 | 0 | 1.15 | 11.57 | 61.67 | 0 | 2.14 | 4.9 | 6.07 |
| 13:46 | 2 | 25.5 | 52 | 56,512 | 0 | 0 | 1.07 | 11.71 | 61.48 | 0 | 0.71 | 3.37 | 4.6 |
| 13:45 | 2 | 25.5 | 52 | 56,865 | 0 | 0 | 1.08 | 11.52 | 61.53 | 0 | 1.43 | 2.86 | 3.14 |
| 13:43 | 2 | 25.6 | 52 | 57,127 | 0 | 0 | 1.14 | 11.31 | 58.81 | 0 | 0.71 | 2.86 | 3.14 |
| 13:42 | 2 | 25.7 | 52 | 57,124 | 0 | 0 | 1.31 | 11.3 | 59.76 | 0 | 0.71 | 2.86 | 3.14 |
| 13:41 | 2 | 25.7 | 52 | 57,029 | 0 | 0 | 1.33 | 11.63 | 57.54 | 0 | 0 | 1.84 | 2.02 |
| 13:35 | 2 | 25.6 | 53 | 56,053 | 0 | 0 | 1.72 | 12.19 | 54.31 | 0 | 0 | 2.83 | 3.16 |
| 13:28 | 2 | 25.3 | 53 | 55,551 | 0 | 0 | 1.65 | 11.65 | 56.91 | 0 | 0 | 1.8 | 1.98 |
| 13:27 | 2 | 25.3 | 53 | 55,570 | 0 | 0 | 1.59 | 11.89 | 59.26 | 0 | 0 | 1.8 | 1.98 |
| 13:26 | 2 | 25.2 | 53 | 55,613 | 0 | 0 | 1.62 | 13.13 | 53.18 | 0 | 0 | 1.8 | 1.98 |
| 13:25 | 2 | 25.2 | 53 | 55,656 | 0 | 0 | 1.35 | 12.22 | 55.6 | 0 | 0 | 2.32 | 2.44 |
| 13:24 | 2 | 25.3 | 53 | 55,695 | 0 | 0 | 1.16 | 12.7 | 52.69 | 0 | 0 | 1.81 | 1.99 |
| 13:23 | 2 | 25.3 | 53 | 55,738 | 0 | 0 | 1.06 | 11.82 | 59.35 | 0 | 0 | 1.81 | 1.99 |
| 13:22 | 2 | 25.3 | 53 | 55,828 | 0 | 0 | 1 | 12.07 | 58.97 | 0 | 0 | 1.82 | 2 |
| 13:20 | 2 | 25.3 | 53 | 56,083 | 0 | 0 | 1.07 | 12.02 | 60.8 | 0 | 0 | 1.83 | 2.01 |